FW2323 Weather Reports


time (UTC)temp
C
wind
direction
speed
KPH
gust
KPH
rain 1hr
cm
rain 24hr
cm
rain mn
cm
humidity
%
barometer
mb
20260504100303 22 89 3.2 19.3 0.00 0.00 0.00 40 1018.2
20260504081802 18 68 0.0 0.0 0.00 0.00 0.00 48 1019.0
20260504081303 18 105 0.0 0.0 0.00 0.00 0.00 49 1019.2
20260504080803 17 27 0.0 0.0 0.00 0.00 0.00 51 1019.2
20260504070302 17 38 0.0 0.0 0.00 0.00 0.00 52 1019.1
20260504050304 14 265 0.0 0.0 0.00 0.00 0.00 62 1018.9
20260504045802 13 261 0.0 0.0 0.00 0.00 0.00 64 1018.7
20260504045304 13 251 0.0 0.0 0.00 0.00 0.00 65 1018.7
20260504044804 12 239 0.0 0.0 0.00 0.00 0.00 67 1018.7
20260504044303 12 239 0.0 3.2 0.00 0.00 0.00 66 1018.5
20260504043803 12 239 0.0 0.0 0.00 0.00 0.00 65 1018.5
20260504043303 12 239 0.0 0.0 0.00 0.00 0.00 65 1018.5
20260504042803 12 239 0.0 0.0 0.00 0.00 0.00 65 1018.4
20260504042304 13 239 0.0 0.0 0.00 0.00 0.00 64 1018.4
20260504041802 12 255 0.0 0.0 0.00 0.00 0.00 63 1018.4
20260504041303 12 247 0.0 0.0 0.00 0.00 0.00 63 1018.4
20260504040803 12 256 0.0 0.0 0.00 0.00 0.00 63 1018.4
20260504040309 12 257 0.0 0.0 0.00 0.00 0.00 62 1018.4
20260504035802 12 257 0.0 0.0 0.00 0.00 0.00 62 1018.4
20260504035304 12 257 0.0 0.0 0.00 0.00 0.00 62 1018.4
20260504034803 12 257 0.0 0.0 0.00 0.00 0.00 61 1018.4
20260504033803 12 239 0.0 0.0 0.00 0.00 0.00 61 1018.4
20260504033303 13 239 0.0 0.0 0.00 0.00 0.00 61 1018.4
20260504032802 13 237 0.0 0.0 0.00 0.00 0.00 61 1018.4
20260504032304 13 237 0.0 0.0 0.00 0.00 0.00 61 1018.4
20260504031803 13 238 0.0 0.0 0.00 0.00 0.00 61 1018.4
20260504030803 13 238 0.0 0.0 0.00 0.00 0.00 60 1018.3
20260504030304 13 242 0.0 0.0 0.00 0.00 0.00 60 1018.3
20260504025802 13 244 0.0 0.0 0.00 0.00 0.00 60 1018.4
20260504025304 13 244 0.0 0.0 0.00 0.00 0.00 59 1018.4
20260504024803 13 244 0.0 0.0 0.00 0.00 0.00 59 1018.4
20260504024304 13 244 0.0 0.0 0.00 0.00 0.00 59 1018.5
20260504023802 13 244 0.0 0.0 0.00 0.00 0.00 59 1018.5
20260504023303 13 244 0.0 0.0 0.00 0.00 0.00 59 1018.5
20260504022803 13 244 0.0 0.0 0.00 0.00 0.00 59 1018.5
20260504022304 13 244 0.0 0.0 0.00 0.00 0.00 58 1018.5
20260504020303 13 259 0.0 0.0 0.00 0.00 0.00 60 1018.5
20260504015803 13 259 0.0 0.0 0.00 0.00 0.00 59 1018.4
20260504015304 14 261 0.0 0.0 0.00 0.00 0.00 57 1018.4
20260504014303 14 261 0.0 0.0 0.00 0.00 0.00 56 1018.4
20260504013304 15 261 0.0 0.0 0.00 0.00 0.00 55 1018.4
20260504012803 15 261 0.0 0.0 0.00 0.00 0.00 54 1018.3
20260504011803 15 253 0.0 0.0 0.00 0.00 0.00 52 1018.3
20260504011303 15 263 0.0 0.0 0.00 0.00 0.00 53 1018.2
20260504010803 15 228 0.0 0.0 0.00 0.00 0.00 54 1018.2
20260504010305 15 228 0.0 0.0 0.00 0.00 0.00 54 1018.2
20260504005804 15 228 0.0 0.0 0.00 0.00 0.00 54 1018.3
20260504005304 15 231 0.0 0.0 0.00 0.00 0.00 55 1018.3
20260504004803 15 231 0.0 0.0 0.00 0.00 0.00 54 1018.3
20260504004303 15 231 0.0 0.0 0.00 0.00 0.00 54 1018.4
20260504003803 15 231 0.0 0.0 0.00 0.00 0.00 53 1018.4
20260504003304 15 233 0.0 0.0 0.00 0.00 0.00 53 1018.4
20260504002802 15 233 0.0 0.0 0.00 0.00 0.00 53 1018.5
20260504002304 15 233 0.0 0.0 0.00 0.00 0.00 53 1018.5
20260504001803 15 233 0.0 0.0 0.00 0.00 0.00 53 1018.5
20260504001302 15 233 0.0 0.0 0.00 0.00 0.00 53 1018.6
20260504000803 15 233 0.0 0.0 0.00 0.00 0.00 52 1018.6
20260504000303 15 233 0.0 0.0 0.00 0.00 0.00 52 1018.6
20260503235804 15 233 0.0 0.0 0.00 0.00 0.00 52 1018.7
20260503235304 15 233 0.0 0.0 0.00 0.00 0.00 52 1018.7
20260503234303 15 233 0.0 0.0 0.00 0.00 0.00 51 1018.7
20260503233804 15 233 0.0 0.0 0.00 0.00 0.00 52 1018.7
20260503233304 15 233 0.0 0.0 0.00 0.00 0.00 52 1018.7
20260503232803 15 226 0.0 0.0 0.00 0.00 0.00 52 1018.7
20260503232305 15 226 0.0 0.0 0.00 0.00 0.00 51 1018.7
20260503231803 15 226 0.0 0.0 0.00 0.00 0.00 51 1018.7
20260503230803 15 226 0.0 0.0 0.00 0.00 0.00 51 1018.8
20260503230303 15 226 0.0 0.0 0.00 0.00 0.00 49 1018.8
20260503225803 15 226 0.0 0.0 0.00 0.00 0.00 50 1018.9
20260503224804 15 226 0.0 0.0 0.00 0.00 0.00 50 1018.9
20260503223803 15 226 0.0 0.0 0.00 0.00 0.00 50 1019.0
20260503222803 16 226 0.0 0.0 0.00 0.00 0.00 48 1018.8
20260503222304 16 226 0.0 0.0 0.00 0.00 0.00 48 1018.8
20260503221803 16 226 0.0 0.0 0.00 0.00 0.00 47 1018.8
20260503220803 16 226 0.0 0.0 0.00 0.00 0.00 47 1018.7
20260503220303 16 226 0.0 0.0 0.00 0.00 0.00 47 1018.7
20260503215304 15 226 0.0 0.0 0.00 0.00 0.00 47 1018.7
20260503214804 15 227 0.0 0.0 0.00 0.00 0.00 48 1018.7
20260503214303 15 227 0.0 0.0 0.00 0.00 0.00 48 1018.7
20260503213803 16 227 0.0 0.0 0.00 0.00 0.00 49 1018.7
20260503213303 16 226 0.0 0.0 0.00 0.00 0.00 49 1018.7
20260503212804 16 235 0.0 0.0 0.00 0.00 0.00 48 1018.7
20260503212305 16 253 0.0 0.0 0.00 0.00 0.00 48 1018.7
20260503211803 16 253 0.0 0.0 0.00 0.00 0.00 47 1018.7
20260503211304 16 253 0.0 0.0 0.00 0.00 0.00 48 1018.6
20260503210804 16 253 0.0 0.0 0.00 0.00 0.00 48 1018.6
20260503210303 16 254 0.0 0.0 0.00 0.00 0.00 48 1018.6
20260503205803 16 260 0.0 0.0 0.00 0.00 0.00 47 1018.5
20260503205304 16 260 0.0 0.0 0.00 0.00 0.00 46 1018.5
20260503204804 16 260 0.0 0.0 0.00 0.00 0.00 47 1018.5
20260503204304 16 261 0.0 0.0 0.00 0.00 0.00 46 1018.6
20260503203803 16 229 0.0 0.0 0.00 0.00 0.00 46 1018.6
20260503202802 16 229 0.0 0.0 0.00 0.00 0.00 45 1018.7
20260503202304 16 229 0.0 0.0 0.00 0.00 0.00 44 1018.7
20260503201804 17 229 0.0 0.0 0.00 0.00 0.00 44 1018.7
20260503201303 17 229 0.0 0.0 0.00 0.00 0.00 43 1018.5
20260503200803 17 229 0.0 0.0 0.00 0.00 0.00 42 1018.5
20260503200303 17 229 0.0 0.0 0.00 0.00 0.00 42 1018.5
20260503195803 17 229 0.0 0.0 0.00 0.00 0.00 42 1018.3
20260503195304 17 229 0.0 0.0 0.00 0.00 0.00 41 1018.3
20260503194804 17 220 0.0 0.0 0.00 0.00 0.00 41 1018.3
20260503194305 17 223 0.0 0.0 0.00 0.00 0.00 41 1018.1
20260503193803 18 214 0.0 0.0 0.00 0.00 0.00 41 1018.1
20260503193303 18 214 0.0 0.0 0.00 0.00 0.00 40 1018.1
20260503192803 18 230 0.0 0.0 0.00 0.00 0.00 39 1018.0
20260503192305 18 213 0.0 0.0 0.00 0.00 0.00 39 1018.0
20260503191803 18 216 0.0 0.0 0.00 0.00 0.00 39 1018.0
20260503191304 18 229 0.0 0.0 0.00 0.00 0.00 39 1017.9
20260503190804 18 222 0.0 0.0 0.00 0.00 0.00 39 1017.9
20260503190303 18 221 0.0 0.0 0.00 0.00 0.00 38 1017.9
20260503185805 18 225 0.0 0.0 0.00 0.00 0.00 38 1017.8
20260503185304 18 224 0.0 0.0 0.00 0.00 0.00 38 1017.8
20260503184805 18 224 0.0 0.0 0.00 0.00 0.00 38 1017.8
20260503184303 18 207 0.0 0.0 0.00 0.00 0.00 38 1017.6
20260503183803 18 209 0.0 0.0 0.00 0.00 0.00 37 1017.6
20260503183303 19 216 0.0 0.0 0.00 0.00 0.00 38 1017.6
20260503182804 19 210 0.0 0.0 0.00 0.00 0.00 38 1017.5
20260503181803 20 212 1.6 9.7 0.00 0.00 0.00 37 1017.5
20260503181303 20 225 1.6 8.0 0.00 0.00 0.00 37 1017.4
20260503180303 20 217 4.8 14.5 0.00 0.00 0.00 36 1017.4
20260503175803 21 204 4.8 12.9 0.00 0.00 0.00 35 1017.2
20260503174803 21 217 0.0 16.1 0.00 0.00 0.00 35 1017.2
20260503174303 21 212 1.6 9.7 0.00 0.00 0.00 35 1017.3
20260503173804 21 215 1.6 0.0 0.00 0.00 0.00 36 1017.3
20260503173303 21 186 3.2 11.3 0.00 0.00 0.00 34 1017.3
20260503172803 21 202 3.2 11.3 0.00 0.00 0.00 35 1017.3
20260503172305 21 209 3.2 11.3 0.00 0.00 0.00 35 1017.3
20260503171803 21 222 3.2 12.9 0.00 0.00 0.00 35 1017.3
20260503171303 21 211 3.2 9.7 0.00 0.00 0.00 35 1017.3
20260503170803 21 207 3.2 16.1 0.00 0.00 0.00 35 1017.3
20260503150803 23 137 9.7 16.1 0.00 0.00 0.00 32 1017.7
20260503150303 24 135 8.0 24.1 0.00 0.00 0.00 32 1017.7
20260503130803 25 155 4.8 24.1 0.00 0.00 0.00 32 1018.2
20260503130303 25 128 8.0 16.1 0.00 0.00 0.00 31 1018.2
20260503110304 23 84 3.2 14.5 0.00 0.00 0.00 37 1018.9